When you browse on this site, cookies collect data to enhance your experience and personalize the content and advertising you see.
Visit our Privacy Policy to learn more. By continuing to use the site, you agree to this use of cookies and data.
  • în România
  • Lista ţărilor
  • Pe 7 zile
  • Temperatura apei
  • Hartă satelitară
  • Meteo pe hartă
  • Widget-uri
  • user-avatar
    Intrare

    Meteo pe oră la Manchester

    Astăzi, 23 Februarie, Sâmbătă

    Timp Temperatura Precipitaţii Vânt Presiune Umiditate
    00:00 -5°C° 0 mm 2 m/s 765 mmHg 87%
    01:00 -5°C° 0 mm 2 m/s 765 mmHg 87%
    02:00 -6°C° 0 mm 2 m/s 765 mmHg 87%
    03:00 -4°C° 0 mm 1 m/s 766 mmHg 88%
    04:00 -6°C° 0 mm 1 m/s 766 mmHg 88%
    05:00 -6°C° 0 mm 1 m/s 766 mmHg 88%
    06:00 -6°C° 0 mm 1 m/s 766 mmHg 88%
    07:00 -6°C° 0 mm 1 m/s 766 mmHg 87%
    08:00 -3°C° 0 mm 1 m/s 766 mmHg 80%
    09:00 0°C° 0 mm 1 m/s 766 mmHg 72%
    10:00 +2°C° 0 mm 1 m/s 766 mmHg 65%
    11:00 +3°C° 0 mm 1 m/s 766 mmHg 63%
    12:00 +4°C° 0 mm 1 m/s 765 mmHg 62%
    13:00 +4°C° 0 mm 2 m/s 765 mmHg 60%
    14:00 +5°C° 0 mm 1 m/s 764 mmHg 64%
    15:00 +5°C° 0 mm 1 m/s 764 mmHg 67%
    16:00 +5°C° 0 mm 1 m/s 763 mmHg 71%
    17:00 +3°C° 0 mm 1 m/s 763 mmHg 76%
    18:00 +1°C° 0 mm 1 m/s 763 mmHg 81%
    19:00 0°C° 0 mm 1 m/s 763 mmHg 87%
    20:00 0°C° 0 mm 1 m/s 763 mmHg 88%
    21:00 0°C° 0 mm 1 m/s 762 mmHg 88%
    22:00 0°C° 0 mm 1 m/s 762 mmHg 89%
    23:00 0°C° 0 mm 1 m/s 761 mmHg 90%

    Mâine, 24 Februarie, Duminică

    Timp Temperatura Precipitaţii Vânt Presiune Umiditate
    00:00 0°C° 0 mm 1 m/s 761 mmHg 90%
    01:00 +1°C° 0 mm 1 m/s 760 mmHg 90%
    02:00 +1°C° 0.1 mm 1 m/s 759 mmHg 92%
    03:00 +1°C° 0.1 mm 1 m/s 758 mmHg 93%
    04:00 +1°C° 0.1 mm 1 m/s 758 mmHg 94%
    05:00 +1°C° 0.3 mm 1 m/s 756 mmHg 95%
    06:00 -1°C° 0.3 mm 2 m/s 755 mmHg 96%
    07:00 +1°C° 0.3 mm 2 m/s 754 mmHg 97%
    08:00 +1°C° 1.1 mm 3 m/s 753 mmHg 97%
    09:00 +1°C° 1.1 mm 3 m/s 751 mmHg 97%
    10:00 +1°C° 1.1 mm 4 m/s 750 mmHg 97%
    11:00 +3°C° 1.4 mm 4 m/s 748 mmHg 97%
    12:00 +4°C° 1.4 mm 4 m/s 745 mmHg 97%
    13:00 +4°C° 1.4 mm 4 m/s 743 mmHg 97%
    14:00 +5°C° 1.4 mm 4 m/s 741 mmHg 97%
    15:00 +7°C° 1.4 mm 4 m/s 739 mmHg 97%
    16:00 +8°C° 1.4 mm 4 m/s 736 mmHg 97%
    17:00 +8°C° 0.7 mm 4 m/s 735 mmHg 97%
    18:00 +8°C° 0.7 mm 3 m/s 734 mmHg 96%
    19:00 +8°C° 0.7 mm 3 m/s 733 mmHg 96%
    20:00 +7°C° 0.5 mm 3 m/s 733 mmHg 90%
    21:00 +4°C° 0.5 mm 4 m/s 733 mmHg 85%
    22:00 +1°C° 0.5 mm 4 m/s 733 mmHg 80%
    23:00 +1°C° 0 mm 4 m/s 733 mmHg 78%

    Poimâine, 25 Februarie, Luni

    Timp Temperatura Precipitaţii Vânt Presiune Umiditate
    00:00 0°C° 0 mm 5 m/s 734 mmHg 77%
    01:00 -1°C° 0 mm 5 m/s 734 mmHg 75%
    02:00 -1°C° 0 mm 5 m/s 734 mmHg 74%
    03:00 -2°C° 0 mm 5 m/s 734 mmHg 73%
    04:00 -3°C° 0 mm 6 m/s 734 mmHg 72%
    05:00 -3°C° 0 mm 6 m/s 735 mmHg 69%
    06:00 -4°C° 0 mm 7 m/s 735 mmHg 66%
    07:00 -4°C° 0 mm 7 m/s 735 mmHg 63%
    08:00 -4°C° 0 mm 8 m/s 736 mmHg 61%
    09:00 -3°C° 0 mm 9 m/s 736 mmHg 59%
    10:00 -3°C° 0 mm 9 m/s 737 mmHg 56%
    11:00 -3°C° 0 mm 10 m/s 738 mmHg 53%
    12:00 -3°C° 0 mm 10 m/s 739 mmHg 50%
    13:00 -3°C° 0 mm 10 m/s 740 mmHg 47%
    14:00 -4°C° 0 mm 10 m/s 741 mmHg 48%
    15:00 -5°C° 0 mm 10 m/s 742 mmHg 49%
    16:00 -6°C° 0 mm 9 m/s 744 mmHg 50%
    17:00 -8°C° 0 mm 9 m/s 745 mmHg 50%
    18:00 -8°C° 0 mm 9 m/s 747 mmHg 50%
    19:00 -8°C° 0 mm 8 m/s 748 mmHg 51%
    20:00 -10°C° 0 mm 8 m/s 749 mmHg 50%
    21:00 -11°C° 0 mm 8 m/s 750 mmHg 50%
    22:00 -11°C° 0 mm 8 m/s 751 mmHg 49%
    23:00 -12°C° 0 mm 8 m/s 752 mmHg 48%

    26 Februarie, Marţi

    Timp Temperatura Precipitaţii Vânt Presiune Umiditate
    00:00 -13°C° 0 mm 8 m/s 753 mmHg 47%
    01:00 -15°C° 0 mm 8 m/s 754 mmHg 46%
    02:00 -15°C° 0 mm 8 m/s 755 mmHg 45%
    03:00 -16°C° 0 mm 8 m/s 756 mmHg 44%
    04:00 -17°C° 0 mm 8 m/s 757 mmHg 43%
    05:00 -17°C° 0 mm 8 m/s 758 mmHg 44%
    06:00 -17°C° 0 mm 8 m/s 758 mmHg 45%
    07:00 -18°C° 0 mm 7 m/s 759 mmHg 45%
    08:00 -17°C° 0 mm 7 m/s 760 mmHg 42%
    09:00 -15°C° 0 mm 7 m/s 760 mmHg 40%
    10:00 -14°C° 0 mm 7 m/s 761 mmHg 37%
    11:00 -14°C° 0 mm 7 m/s 760 mmHg 35%
    12:00 -13°C° 0 mm 7 m/s 760 mmHg 34%
    13:00 -13°C° 0 mm 8 m/s 760 mmHg 32%
    14:00 -13°C° 0 mm 7 m/s 761 mmHg 33%
    15:00 -13°C° 0 mm 7 m/s 761 mmHg 34%
    16:00 -13°C° 0 mm 7 m/s 761 mmHg 35%
    17:00 -14°C° 0 mm 7 m/s 762 mmHg 37%
    18:00 -15°C° 0 mm 6 m/s 763 mmHg 40%
    19:00 -16°C° 0 mm 6 m/s 764 mmHg 42%
    20:00 -16°C° 0 mm 6 m/s 764 mmHg 43%
    21:00 -17°C° 0 mm 6 m/s 765 mmHg 44%
    22:00 -17°C° 0 mm 6 m/s 765 mmHg 46%
    23:00 -18°C° 0 mm 6 m/s 765 mmHg 47%

    27 Februarie, Miercuri

    Timp Temperatura Precipitaţii Vânt Presiune Umiditate
    00:00 -18°C° 0 mm 6 m/s 765 mmHg 48%
    01:00 -18°C° 0 mm 5 m/s 765 mmHg 48%
    02:00 -18°C° 0 mm 5 m/s 765 mmHg 49%
    03:00 -19°C° 0 mm 5 m/s 765 mmHg 49%
    04:00 -19°C° 0 mm 5 m/s 765 mmHg 50%
    05:00 -18°C° 0 mm 4 m/s 766 mmHg 50%
    06:00 -18°C° 0 mm 4 m/s 766 mmHg 49%
    07:00 -17°C° 0 mm 3 m/s 766 mmHg 49%
    08:00 -16°C° 0 mm 3 m/s 766 mmHg 44%
    09:00 -14°C° 0 mm 3 m/s 766 mmHg 39%
    10:00 -13°C° 0 mm 3 m/s 765 mmHg 34%
    11:00 -9°C° 0 mm 2 m/s 764 mmHg 31%
    12:00 -7°C° 0 mm 2 m/s 763 mmHg 28%
    13:00 -5°C° 0 mm 2 m/s 762 mmHg 25%
    14:00 -5°C° 0 mm 2 m/s 761 mmHg 27%
    15:00 -4°C° 0 mm 2 m/s 760 mmHg 29%
    16:00 -4°C° 0 mm 2 m/s 759 mmHg 32%
    17:00 -4°C° 0 mm 2 m/s 758 mmHg 38%
    18:00 -5°C° 0 mm 2 m/s 757 mmHg 45%
    19:00 -5°C° 0 mm 2 m/s 756 mmHg 51%
    20:00 -5°C° 0.9 mm 2 m/s 755 mmHg 65%
    21:00 -6°C° 0.9 mm 2 m/s 753 mmHg 79%
    22:00 -6°C° 0.9 mm 2 m/s 752 mmHg 92%
    23:00 -6°C° 0.4 mm 2 m/s 751 mmHg 92%

    28 Februarie, Joi

    Timp Temperatura Precipitaţii Vânt Presiune Umiditate
    00:00 -4°C° 0.4 mm 1 m/s 750 mmHg 92%
    01:00 -4°C° 0.4 mm 1 m/s 748 mmHg 92%
    02:00 -4°C° 0 mm 1 m/s 748 mmHg 93%
    03:00 -3°C° 0 mm 1 m/s 748 mmHg 94%
    04:00 -3°C° 0 mm 1 m/s 748 mmHg 94%
    05:00 -5°C° 0 mm 2 m/s 749 mmHg 88%
    06:00 -6°C° 0 mm 3 m/s 750 mmHg 83%
    07:00 -6°C° 0 mm 3 m/s 751 mmHg 77%
    08:00 -5°C° 0 mm 4 m/s 751 mmHg 69%
    09:00 -4°C° 0 mm 5 m/s 752 mmHg 61%
    10:00 -2°C° 0 mm 5 m/s 753 mmHg 54%
    11:00 -2°C° 0 mm 5 m/s 753 mmHg 52%
    12:00 -1°C° 0 mm 5 m/s 753 mmHg 50%
    13:00 -1°C° 0 mm 5 m/s 754 mmHg 48%
    14:00 -1°C° 0 mm 4 m/s 754 mmHg 49%
    15:00 -2°C° 0 mm 4 m/s 755 mmHg 50%
    16:00 -2°C° 0 mm 4 m/s 755 mmHg 50%
    17:00 -2°C° 0 mm 3 m/s 756 mmHg 58%
    18:00 -4°C° 0 mm 2 m/s 756 mmHg 65%
    19:00 -6°C° 0 mm 2 m/s 757 mmHg 72%
    20:00 -6°C° 0 mm 2 m/s 758 mmHg 72%
    21:00 -6°C° 0 mm 1 m/s 758 mmHg 71%
    22:00 -6°C° 0 mm 1 m/s 759 mmHg 71%
    23:00 -6°C° 0 mm 1 m/s 759 mmHg 72%
    Arată mai mult